EWG4393 HEGN-LOWS

Flight info

Callsign EWG4393
Flight time N/A
Altitude 36000
Route BOTIX1B BOTIX V608 NABED T55 KUNKI P751 METRU DCT OLGAT/N0447F380 DCT ABADI DCT CRAYE DCT GISAM DCT ORAKA DCT SPL DCT OKLAX DCT NUPSO DCT ALIVO DCT PENEP DCT RASTA RASTA2R
Aircraft A319/M-SDE3FGHIRWY/LB1

Departure

Time N/A
Airport Hurghada International Airport (HEGN)

Arrival

Time 2026-05-05 16:53
Airport Salzburg Airport (LOWS)
Time Latitude Longitude Altitude Speed Heading
2026-05-05 15:49 44.16691 15.82781 35078 ft 428 kts 327°
2026-05-05 15:49 44.19278 15.80767 35079 ft 428 kts 326°
2026-05-05 15:50 44.24462 15.76634 35082 ft 430 kts 326°
2026-05-05 15:50 44.29673 15.72502 35076 ft 431 kts 326°
2026-05-05 15:51 44.34896 15.68397 35070 ft 429 kts 326°
2026-05-05 15:51 44.40100 15.64320 35072 ft 429 kts 327°
2026-05-05 15:52 44.45302 15.60229 35070 ft 429 kts 326°
2026-05-05 15:52 44.50509 15.56114 35077 ft 430 kts 326°
2026-05-05 15:53 44.55730 15.51980 35049 ft 431 kts 326°
2026-05-05 15:53 44.60954 15.47835 35052 ft 431 kts 326°
2026-05-05 15:54 44.66172 15.43688 35050 ft 431 kts 326°
2026-05-05 15:54 44.71360 15.39551 35046 ft 431 kts 326°
2026-05-05 15:55 44.76576 15.35386 35031 ft 430 kts 326°
2026-05-05 15:55 44.81783 15.31214 35031 ft 432 kts 326°
2026-05-05 15:56 44.87011 15.27025 35030 ft 432 kts 326°
2026-05-05 15:56 44.92236 15.22839 35019 ft 432 kts 326°
2026-05-05 15:57 44.97479 15.18631 35017 ft 432 kts 326°
2026-05-05 15:57 45.02711 15.14407 35012 ft 432 kts 326°
2026-05-05 15:58 45.07890 15.10207 35013 ft 432 kts 326°
2026-05-05 15:58 45.13101 15.05977 35013 ft 432 kts 326°
2026-05-05 15:59 45.18321 15.01748 35014 ft 432 kts 327°
2026-05-05 15:59 45.23530 14.97513 35021 ft 431 kts 326°
2026-05-05 16:00 45.28728 14.93267 35024 ft 431 kts 326°
2026-05-05 16:00 45.33928 14.89022 35030 ft 431 kts 326°
2026-05-05 16:01 45.39125 14.84771 35029 ft 432 kts 326°
2026-05-05 16:01 45.44344 14.80488 35016 ft 433 kts 326°
2026-05-05 16:02 45.49532 14.76224 35021 ft 433 kts 326°
2026-05-05 16:02 45.54780 14.71997 35011 ft 434 kts 328°
2026-05-05 16:03 45.60186 14.68137 35008 ft 435 kts 330°
2026-05-05 16:03 45.65641 14.64364 35008 ft 436 kts 330°
2026-05-05 16:04 45.71084 14.60514 35003 ft 437 kts 329°
2026-05-05 16:04 45.76516 14.56594 35019 ft 437 kts 329°
2026-05-05 16:05 45.81952 14.52661 35009 ft 437 kts 329°
2026-05-05 16:05 45.87390 14.48737 35024 ft 437 kts 329°
2026-05-05 16:06 45.92828 14.44811 35016 ft 437 kts 329°
2026-05-05 16:06 45.98256 14.40864 35012 ft 437 kts 329°
2026-05-05 16:07 46.03653 14.36924 35013 ft 439 kts 329°
2026-05-05 16:07 46.09114 14.32945 35008 ft 440 kts 329°
2026-05-05 16:08 46.14575 14.28960 35007 ft 440 kts 329°
2026-05-05 16:08 46.20137 14.25229 35008 ft 441 kts 332°
2026-05-05 16:09 46.25765 14.21653 35006 ft 441 kts 332°
2026-05-05 16:09 46.31373 14.18026 35005 ft 441 kts 332°
2026-05-05 16:10 46.36969 14.14334 34999 ft 442 kts 331°
2026-05-05 16:10 46.42581 14.10598 34988 ft 444 kts 330°
2026-05-05 16:11 46.48167 14.06878 34983 ft 444 kts 331°
2026-05-05 16:12 46.59398 13.99400 34966 ft 444 kts 331°
2026-05-05 16:13 46.68316 13.93447 34952 ft 444 kts 331°
2026-05-05 16:33 46.69156 13.92873 34884 ft 444 kts 329°
2026-05-05 16:33 46.74752 13.89063 34864 ft 441 kts 331°
2026-05-05 16:34 46.77502 13.87224 34302 ft 442 kts 331°
2026-05-05 16:34 46.80333 13.85336 33577 ft 444 kts 331°
2026-05-05 16:34 46.83129 13.83472 32748 ft 447 kts 331°
2026-05-05 16:34 46.85983 13.81561 31833 ft 452 kts 331°
2026-05-05 16:35 46.88828 13.79646 30884 ft 457 kts 331°
2026-05-05 16:35 46.91742 13.77674 29876 ft 464 kts 332°
2026-05-05 16:35 46.94711 13.75661 28700 ft 470 kts 332°
2026-05-05 16:35 46.97670 13.73656 27630 ft 473 kts 332°
2026-05-05 16:36 47.00670 13.71621 26607 ft 475 kts 332°
2026-05-05 16:36 47.03649 13.69602 25849 ft 469 kts 332°
2026-05-05 16:36 47.06599 13.67605 25105 ft 465 kts 332°
2026-05-05 16:36 47.09534 13.65614 24376 ft 463 kts 332°
2026-05-05 16:37 47.12442 13.63639 23713 ft 458 kts 332°
2026-05-05 16:37 47.15325 13.61677 22972 ft 453 kts 332°
2026-05-05 16:37 47.18172 13.59735 22186 ft 448 kts 332°
2026-05-05 16:37 47.20984 13.57811 21450 ft 442 kts 332°
2026-05-05 16:38 47.23724 13.55932 20750 ft 436 kts 332°
2026-05-05 16:38 47.26456 13.54056 20031 ft 431 kts 332°
2026-05-05 16:38 47.29156 13.52199 19377 ft 426 kts 332°
2026-05-05 16:38 47.31834 13.50354 18752 ft 420 kts 332°
2026-05-05 16:39 47.34455 13.48551 18088 ft 416 kts 332°
2026-05-05 16:39 47.37076 13.46746 17472 ft 410 kts 332°
2026-05-05 16:39 47.39645 13.44976 16859 ft 406 kts 332°
2026-05-05 16:39 47.42158 13.43247 16257 ft 401 kts 332°
2026-05-05 16:40 47.44706 13.41489 15602 ft 397 kts 332°
2026-05-05 16:40 47.47191 13.39767 14994 ft 393 kts 332°
2026-05-05 16:40 47.49603 13.38027 14393 ft 387 kts 328°
2026-05-05 16:40 47.51860 13.35932 13726 ft 380 kts 324°
2026-05-05 16:41 47.54069 13.33819 12884 ft 375 kts 325°
2026-05-05 16:41 47.56252 13.31735 12024 ft 372 kts 325°
2026-05-05 16:41 47.58414 13.29673 11215 ft 368 kts 325°
2026-05-05 16:41 47.60556 13.27627 10432 ft 364 kts 326°
2026-05-05 16:42 47.62678 13.25599 9738 ft 361 kts 326°
2026-05-05 16:42 47.64734 13.23658 9592 ft 340 kts 328°
2026-05-05 16:42 47.66845 13.22310 9462 ft 322 kts 338°
2026-05-05 16:42 47.68894 13.21211 9319 ft 304 kts 339°
2026-05-05 16:43 47.70857 13.20190 9029 ft 296 kts 339°
2026-05-05 16:43 47.72784 13.19184 8661 ft 292 kts 339°
2026-05-05 16:43 47.74657 13.18068 8259 ft 288 kts 335°
2026-05-05 16:43 47.76490 13.16882 7972 ft 286 kts 335°
2026-05-05 16:44 47.78324 13.15708 7947 ft 288 kts 334°
2026-05-05 16:44 47.80165 13.14565 7956 ft 290 kts 334°
2026-05-05 16:44 47.82033 13.13409 7954 ft 290 kts 334°
2026-05-05 16:44 47.83879 13.12256 7945 ft 290 kts 335°
2026-05-05 16:45 47.85734 13.11087 7734 ft 288 kts 335°
2026-05-05 16:45 47.87573 13.09925 7321 ft 286 kts 335°
2026-05-05 16:45 47.89393 13.08776 7008 ft 281 kts 335°
2026-05-05 16:45 47.91164 13.07654 6739 ft 274 kts 335°
2026-05-05 16:46 47.92895 13.06543 6350 ft 273 kts 335°
2026-05-05 16:46 47.94644 13.05420 5993 ft 271 kts 335°
2026-05-05 16:46 47.96360 13.04310 5613 ft 268 kts 335°
2026-05-05 16:46 47.98065 13.03192 5209 ft 266 kts 332°
2026-05-05 16:47 47.99505 13.01544 4849 ft 259 kts 308°
2026-05-05 16:47 48.00353 12.99236 4527 ft 252 kts 284°
2026-05-05 16:47 48.00505 12.96716 4391 ft 239 kts 263°
2026-05-05 16:47 48.00040 12.94390 4125 ft 233 kts 242°
2026-05-05 16:48 47.99042 12.92520 3950 ft 232 kts 222°
2026-05-05 16:48 47.97817 12.90939 3939 ft 231 kts 218°
2026-05-05 16:48 47.96405 12.90094 3927 ft 214 kts 185°
2026-05-05 16:48 47.94986 12.90479 3937 ft 204 kts 158°
2026-05-05 16:49 47.93692 12.91314 3951 ft 201 kts 158°
2026-05-05 16:49 47.92416 12.92123 3935 ft 197 kts 158°
2026-05-05 16:49 47.91222 12.92879 3944 ft 170 kts 158°
2026-05-05 16:49 47.90199 12.93527 3937 ft 152 kts 158°
2026-05-05 16:50 47.89262 12.94118 3933 ft 145 kts 158°
2026-05-05 16:50 47.88337 12.94702 3938 ft 141 kts 159°
2026-05-05 16:50 47.87450 12.95279 3593 ft 140 kts 156°
2026-05-05 16:50 47.86557 12.95897 3187 ft 142 kts 158°
2026-05-05 16:51 47.85651 12.96429 2854 ft 138 kts 160°
2026-05-05 16:51 47.84748 12.96983 2497 ft 142 kts 158°
2026-05-05 16:51 47.83843 12.97551 2209 ft 141 kts 159°
2026-05-05 16:51 47.82940 12.98126 1996 ft 141 kts 158°
2026-05-05 16:52 47.82036 12.98699 1830 ft 140 kts 158°
2026-05-05 16:52 47.81154 12.99249 1631 ft 139 kts 157°
2026-05-05 16:52 47.80255 12.99810 1441 ft 141 kts 156°
2026-05-05 16:52 47.79415 13.00343 1419 ft 116 kts 156°
2026-05-05 16:53 47.79953 13.00005 1417 ft 0 kts 158°
2026-05-05 16:53 47.79935 13.00016 1415 ft 11 kts 158°
2026-05-05 16:53 47.79799 13.00085 1419 ft 31 kts 157°
2026-05-05 16:53 47.79539 13.00251 1418 ft 50 kts 158°
2026-05-05 16:54 47.79270 13.00425 1416 ft 24 kts 155°
2026-05-05 16:54 47.79218 13.00461 1418 ft 2 kts 154°
2026-05-05 16:54 47.81077 12.99296 1616 ft 139 kts 156°
2026-05-05 16:54 47.80178 12.99860 1431 ft 140 kts 156°
2026-05-05 16:55 47.79361 13.00378 1418 ft 111 kts 156°
2026-05-05 16:55 47.81647 12.98941 1735 ft 139 kts 158°
2026-05-05 16:55 47.80767 12.99485 1535 ft 140 kts 156°
2026-05-05 16:55 47.79863 13.00062 1419 ft 131 kts 157°
2026-05-05 16:56 47.79626 13.00209 1419 ft 126 kts 157°